Location: East Horndon
(51.5667°N, 0.3500°E)
Time: 06:09:26
(UTC+00:00)

ACS3 Solar Sail - Pass Details

Date: 08 November 2025
Orbit: 888 x 1002 km, 97.3° (Epoch: 11 December)

Event Time Altitude Azimuth Distance (km) Brightness Sun altitude
Rises 01:53:30 0° 24° (NNE) 3,526 5.3 -46.4°
Reaches altitude 10° 01:56:55 10° 45° (NE) 2,596 4.6 -46.0°
Enters shadow 01:58:52 15° 64° (ENE) 2,261 4.2 -45.8°
